Regional Weather Roundup
Issued by NWS Wakefield, VA

Home | Current Version | Previous Version | Graphics & Text | Print | Product List | Glossary On
Versions: 1 2 3 4 5 6 7 8 9 10 11 12 13 14 15 16 17 18 19 20 21 22 23 24 25 26 27 28
000
ASUS41 KAKQ 242210
RWRAKQ

REGIONAL WEATHER ROUNDUP
NATIONAL WEATHER SERVICE WAKEFIELD VA
600 PM EDT FRI OCT 24 2014

Note: "fair" indicates few or no clouds below 12,000 feet with no
significant weather and/or obstructions to visibility. * = Denotes
station may not report precipitation (e.g., rain,snow,etc.),
thunder or fog.

VAZ042-051-052>054-056-242300-
NORTHERN VIRGINIA

CITY           SKY/WX    TMP DP  RH WIND       PRES   REMARKS
WASH NATIONAL  MOCLDY    68  36  30 NW9       29.91R
DULLES         MOCLDY    62  39  42 W7        29.92R
FORT BELVOIR   PTCLDY    64  42  44 NW7       29.92R
QUANTICO       CLEAR     61  45  55 NW5       29.93R
FREDERICKSBRG* PTCLDY    64  47  54 W6        29.92R
STAFFORD*      PTCLDY    60  43  52 CALM      29.96S
WARRENTON      CLEAR     65  49  56 NW3       29.92S
CULPEPER*      MOCLDY    66  37  34 CALM      29.94R
MANASSAS*      PTCLDY    64  37  36 NW7       29.93R
LEESBURG*      MOCLDY    63  43  48 NW8       29.93S
WINCHESTER     CLOUDY    63  30  29 NW9       29.95R
FRONT ROYAL*   MOCLDY    63  34  34 CALM      29.93S
LURAY*         MOCLDY    64  36  34 W5        29.95R
$$

VAZ048-049-060>072-079>083-242300-
CENTRAL AND SOUTH CENTRAL VIRGINIA...AND NORTH CENTRAL NORTH CAROLINA

CITY           SKY/WX    TMP DP  RH WIND       PRES   REMARKS
RICHMOND       MOCLDY    66  39  37 NW3       29.93S
CHESTERFIELD*    N/A    N/A N/A N/A MISG        N/A
PETERSBURG*    PTCLDY    57  50  77 CALM      29.95R
HANOVER        CLEAR     59  49  69 CALM      29.94S
TAPPAHANNOCK*  CLEAR     64  37  38 CALM      29.93S
CHARLOTTSVILLE MOCLDY    66  38  35 NW3       29.93S
ORANGE*        PTCLDY    64  41  42 SW3       29.95R
LOUISA*        PTCLDY    59  48  67 CALM      29.92S
FARMVILLE*     MOCLDY    63  45  51 CALM      29.93S
CREWE*         CLOUDY    61  49  65 CALM      29.94S
FORT PICKETT*  CLOUDY    58  52  79 SW5       29.94S
LUNENBURG*     CLOUDY    60  53  77 CALM      29.94F
SOUTH HILL*    CLOUDY    64  52  63 CALM      30.00S
LAWRENCEVILLE* CLOUDY    60  53  75 CALM      29.94S
ROANOKE RAPIDS CLOUDY    61  52  72 CALM      29.95S
RALEIGH        MOCLDY    62  48  60 W3        29.97R
$$

VAZ088>098-242300-
SOUTHEAST VIRGINIA

CITY           SKY/WX    TMP DP  RH WIND       PRES   REMARKS
NORFOLK        CLEAR     65  42  43 VRB3      29.91S
VIRGINIA BEACH PTCLDY    64  44  48 NW8       29.91R
NORFOLK NAVAL  MOCLDY    66  46  48 W8        29.93R
WEST POINT*    CLEAR     66  38  36 W7        29.93S
NEWPORT NEWS   CLEAR     66  43  43 W9        29.92R
LANGLEY AFB    CLEAR     62  45  54 W8        29.92R
FORT EUSTIS    CLEAR     63  43  48 VRB6      29.91R
WILLIAMSBURG*  CLEAR     64  50  59 W3        29.93S
HR EXEC AP*    CLEAR     57  46  67 CALM      29.95R
FRANKLIN*      PTCLDY    61  48  63 CALM      29.94R
WAKEFIELD      PTCLDY    59  51  75 CALM      29.94R
$$

VAZ020-022-025-037-045-242300-
WEST CENTRAL AND SOUTHWEST VIRGINIA

CITY           SKY/WX    TMP DP  RH WIND       PRES   REMARKS
STAUNTON*      MOCLDY    66  38  35 CALM      29.96S
HOT SPRINGS VA PTCLDY    54  36  49 W10       30.00S
LYNCHBURG      PTCLDY    61  41  47 SW5       29.97R
DANVILLE       MOCLDY    63  47  55 S5        29.97S
SOUTH BOSTON*  NOT AVBL
MARTINSVILLE   MOCLDY    63  53  71 CALM      30.00S
ROANOKE        MOCLDY    67  38  34 NW10      29.98S
BLACKSBURG     PTCLDY    61  39  44 W6        30.03R
DUBLIN*        PTCLDY    62  32  32 N3        30.03R
MARION*        CLEAR     60  34  37 W10       30.06R
HILLSVILLE*    CLEAR     60  37  41 N6        30.02S
RICHLANDS*     CLEAR     61   5  11 NW5       30.05S
WISE*          CLEAR     57  37  47 N6        30.08R
ABINGDON*      CLEAR     63  36  36 CALM      30.04S
$$

MDZ021>025-VAZ099-100-242300-
SOUTHERN MARYLAND AND THE DELMARVA PENINSULA

CITY           SKY/WX    TMP DP  RH WIND       PRES   REMARKS
PATUXENT RIVER MOCLDY    62  42  47 W9        29.89S
BAY BRIDGE APT   N/A     63  39  42 W5        29.88R
LEONARDTOWN    PTCLDY    61  41  48 W7        29.92R
DOVER          MOCLDY    65  45  47 W9        29.83R
GEORGETOWN     PTCLDY    65  44  46 VRB6      29.87R
EASTON         CLEAR     64  46  52 NW6       29.91
CAMBRIDGE      CLEAR     61  45  55 W5        29.88R
SALISBURY      CLEAR     64  44  48 W8        29.87R
OCEAN CITY     CLEAR     62  47  57 W6        29.87R
WALLOPS ISLAND CLEAR     62  47  57 NW13      29.89R
ACCOMACK*      CLEAR     61  45  55 NW10      29.90R
$$

NCZ012>017-030>032-242300-
EASTERN NORTH CAROLINA

CITY           SKY/WX    TMP DP  RH WIND       PRES   REMARKS
ELIZABETH CITY CLEAR     63  48  58 W7        29.92S
AHOSKIE*       MOCLDY    61  50  67 CALM      29.95R
EDENTON*       CLEAR     64  49  57 W3        29.94S
CURRITUCK*     CLEAR     66  47  50 W3        29.92S
KILL DEVIL HLS CLEAR     63  50  63 W3        29.91S
MANTEO         CLEAR     63  51  65 NW3       29.92S
CAPE HATTERAS  PTCLDY    63  53  70 NW7       29.92F
TARBORO*       MOCLDY    68  48  49 CALM      29.96S
GOLDSBORO      MOCLDY    66  52  59 W3        29.94S
WASHINGTON     PTCLDY    66  49  54 CALM      29.95R
GREENVILLE     MOCLDY    66  50  55 CALM      29.97S
NEW BERN       CLEAR     68  49  50 NW3       29.96R
WILMINGTON     CLEAR     68  48  48 NW5       29.96R
$$

VAZ048-242300-
ELSEWHERE

CITY           SKY/WX    TMP DP  RH WIND       PRES   REMARKS
HARRISBURG PA  CLOUDY    61  38  42 NW10      29.87R
BALTIMORE      MOCLDY    64  36  35 W9G17     29.88R
ANNAPOLIS      PTCLDY    64  39  39 W6        29.88R
ANDREWS AFB    PTCLDY    64  37  36 W8        29.90R
WILMINGTON DE  CLOUDY    64  40  41 W10       29.85R
PHILADELPHIA   MOCLDY    67  43  41 W10       29.82R
WILDWOOD NJ*   PTCLDY    63  46  55 W9        29.85R
ATLANTIC CITY  MOCLDY    63  47  55 W9        29.81R
HENDERSON NC   MOCLDY    63  47  57 CALM      29.97R
GREENSBORO     MOCLDY    63  41  44 SW5       29.97S
ROCKY MOUNT    MOCLDY    62  51  67 CALM      29.96R
FAYETTEVILLE   CLOUDY    69  46  43 NW6       29.96S
CHARLOTTE      CLOUDY    63  44  50 SW3       29.99F
$$

VAZ100-242300-
MARINE

STATION/POSITION TIME  TEMP    WIND        PRES    WAVE   SWELL
                       AIR SEA DIR/SP/G            HT/PER HT/PER
                 (UTC) (F)     (DEG/KT/KT) (MB)    (FT/S) (FT/S)
44066 TX TWR #4  2200   59 65  330/ 17/ 21 1007.8R   6/ 6   2/10
CAPE MAY NJ      2200   62 63  290/  9/ 12 1009.8R
LEWES DE         2200   64 58  290/  7/  9 1010.5R
15NM E FENWICK I 2200   65 64  300/ 12/ 14 1010.4R   4/ 7   3/ 7
OCEAN-CITY-INLET 2200   64 62  310/  8/ 12 1010.7R
WACHAPREAGUE VA  2200   63 61  290/  3/  9 1012.3R
THOMAS POINT MD  2200   65 62  290/ 13/ 14 1012.9R
GOOSES REEF MD   2200   66     310/ 12/ 16 1012.4R
COVE POINT MD    2200   64     310/  7/  9 1012.0R
SOLOMONS ISLAND  2200      64                N/A
BISHOPS HEAD MD  2200   62 59  260/ 11/ 14 1011.6S
PINEY POINT MD   2200          310/ 15/ 16   N/A
POTOMAC MD       2200   65     300/ 14/ 16 1011.6S
CAMBRIDGE MD     2200   65 60  270/  5/  7 1011.5R
LEWISETTA VA     2200   64 60  280/  8/ 12 1012.2S
RAPPAHANNOCK LGT 2200          290/ 12/ 14 1013.0R
STINGRAY PT      2200   66     300/  8/ 10 1013.3R
YORK RVR RNG VA  2200   66     310/  8/ 10 1012.4R
YORKTOWN VA      2200   65 64  270/  7/  8 1012.6R
JAMESTOWN VA     2200   65     310/  8/ 10   N/A
DOMINION TERM VA 2200   65     300/ 10/ 12 1013.0R
KIPTOPEKE VA     2200      66  320/ 11/ 14   N/A
CHES BAY BRIDGE  2200   66 65  270/ 12/ 13 1012.4R
CHESAPEAKE LGHT  2100   64     290/ 13/ 14 1013.2F
WILLOUBY STN VA  2200   66     290/ 11/ 12 1011.7R
S CRANEY ISL VA  2200          250/  5/  7 1012.9R
CAPE HENRY BUOY  2100      67                N/A     4/ 6
1ST LANDING BUOY 2200   66     310/ 10/ 12 1012.5R
CAPE CHARLES BUO 2200      66                N/A     3/ 7   2/ 7
64NM E OF VA BCH 2200   63 67  300/ 14/ 17 1012.0R   5/ 8   3/ 8
DUCK PIER NC     2200   64 66  280/  4/  4 1012.2S
44100 DUCK FRF   2200      67                N/A     4/ 6   2/11
44056 DUCK FRF   2200                        N/A     4/11   2/11
OREGON INLET NC  2200   64 64  280/  5/  7 1013.0S
HATTERAS NC      2200   65 64  310/ 11/ 12 1013.7R
DIAMOND SHLS NC  2200   65     310/ 12/ 16 1013.4R   3/ 6   2/ 6
CAPE LOOKOUT NC  2100   66     270/  9/ 11 1013.9F
$$



USA.gov is the U.S. government's official web portal to all federal, state and local government web resources and services.